Home   Weather   Ivalo   Past weeks

Flag for Finland Past Weather in Ivalo, Finland — Yesterday and Last 2 Weeks

Now
7 °F

Clear.


Feels Like: -4 °F
Forecast: 8 / 37 °F
Wind: 6 mph from Southwest

Location: Ivalo

Current Time: Jan 24, 2017 at 11:52:55 pm

Latest Report: Jan 24, 2017 at 11:20 pm


Visibility: 10 mi

Pressure: 30.04 "Hg

Humidity: 85%

Dew Point: 3 °F

Location of IvaloLocation

Past Weather in Ivalo — Graph

°F

Ivalo Temperature Yesterday

Maximum temperature yesterday: 9 °F (at 8:50 pm)
Minimum temperature yesterday: -8 °F (at 4:20 am)
Average temperature yesterday: 0 °F

High & Low Weather Summary for the Past Weeks

 TemperatureHumidityPressure
High36 °F (Jan 18, 11:50 pm)100% (Jan 10, 6:20 am)30.12 "Hg (Jan 10, 6:20 am)
Low-11 °F (Jan 24, 9:50 am)58% (Jan 19, 10:20 pm)28.91 "Hg (Jan 11, 3:20 pm)
Average16 °F83%29.51 "Hg
* Reported Jan 9 10:20 pm — Jan 24 10:20 pm, Ivalo, Weather by CustomWeather, © 2017

Note: Actual official high and low records may vary slightly from our data, if they occured in-between our weather recording intervals... More about our weather records

Advertising

Ivalo Weather History for the Previous 24 Hours

Scroll right to see more
 ConditionsComfort  
Time TempWeatherWind HumidityBarometerVisibility
10:20 pm
Tue, Jan 24
5 °FClear.No wind85%30.04 "Hg10 mi
9:50 pm3 °FClear.No wind85%30.07 "Hg10 mi
9:20 pm-2 °FClear.No wind84%30.07 "Hg10 mi
8:50 pm-2 °FLight snow. Clear.No wind84%30.07 "HgN/A
8:20 pm-4 °FLight snow. Clear.No wind77%30.09 "Hg5 mi
7:50 pm-4 °FSnow. Clear.No wind84%30.09 "Hg1 mi
7:20 pm-4 °FLight snow. Clear.No wind84%30.09 "Hg2 mi
6:50 pm-4 °FClear.6 mph84%30.09 "Hg10 mi
6:20 pm-8 °FClear.6 mph84%30.09 "Hg10 mi
5:50 pm-8 °FClear.3 mph84%30.12 "Hg10 mi
5:20 pm-9 °FLight snow. Clear.5 mph84%30.12 "Hg4 mi
4:50 pm-9 °FSnow flurries. Clear.No wind77%30.12 "HgN/A
4:20 pm-9 °FSnow flurries. Clear.No wind84%30.12 "Hg0 mi
3:50 pm-9 °FSnow flurries. Clear.No wind84%30.12 "HgN/A
3:20 pm-8 °FSnow flurries. Clear.N/A77%30.12 "HgN/A
2:50 pm-8 °FClear.6 mph84%30.12 "Hg10 mi
2:20 pm-8 °FSunny.6 mph77%30.12 "Hg10 mi
1:50 pm-8 °FSunny.6 mph77%30.12 "Hg10 mi
1:20 pm-8 °FSunny.6 mph77%30.12 "Hg10 mi
12:50 pm-9 °FSunny.7 mph84%30.12 "Hg10 mi
12:20 pm-9 °FSunny.6 mph77%30.12 "Hg10 mi
11:50 am-9 °FSunny.5 mph84%30.09 "Hg10 mi
11:20 am-9 °FSunny.5 mph84%30.09 "Hg10 mi
10:50 am-9 °FSunny.5 mph77%30.09 "Hg10 mi
10:20 am-9 °FSunny.3 mph77%30.09 "Hg10 mi
9:50 am-11 °FClear.5 mph84%30.09 "Hg10 mi
9:20 am-9 °FClear.No wind77%30.07 "Hg10 mi
8:50 am-9 °FClear.No wind84%30.07 "Hg10 mi
8:20 am-8 °FClear.No wind77%30.04 "Hg10 mi
7:50 am-8 °FClear.No wind84%30.04 "Hg10 mi
7:20 am-8 °FSnow flurries. Clear.No wind77%30.04 "HgN/A
6:50 am-8 °FClear.No wind84%30.04 "Hg10 mi
6:20 am-6 °FClear.No wind77%30.01 "Hg10 mi
5:50 am-4 °FClear.No wind77%30.01 "Hg10 mi
5:20 am-4 °FClear.No wind84%30.01 "Hg10 mi
4:50 am-2 °FClear.No wind77%30.01 "Hg10 mi
4:20 am0 °FClear.No wind84%29.98 "Hg10 mi
3:50 am0 °FClear.No wind84%29.98 "Hg10 mi
3:20 am0 °FClear.No wind92%29.95 "Hg10 mi
2:50 am3 °FClear.No wind92%29.95 "Hg10 mi
2:20 am5 °FClear.No wind85%29.92 "Hg10 mi
1:50 am5 °FClear.No wind92%29.92 "Hg10 mi
1:20 am9 °FClear.No wind85%29.92 "Hg10 mi
12:50 am9 °FPassing clouds.No wind85%29.89 "HgN/A
12:20 am9 °FOvercast.No wind85%29.89 "HgN/A
11:50 pm
Mon, Jan 23
9 °FPartly cloudy.No wind85%29.86 "HgN/A
11:20 pm9 °FPassing clouds.No wind85%29.86 "HgN/A
Weather by CustomWeather, © 2017

See weather overviewHow to use our weather pages